STARLINK-35031, 65404

Orbit data source: Space-Track

STARLINK-35031, 65404 is a payload satellite owned by SpaceX/Seattle (US) in LEO that was launched on Sun, 31 Aug 2025 UTC via an FALCON 9 launch vehicle from the Air Force Eastern Test Range (AFETR). Payload-class satellites include a variety of spacecraft equipped with specific instruments for various scientific and technological missions. These include communications satellites like Starlink; space stations such as the ISS; scientific satellites like the Hubble; Earth observation satellites from companies like Planet Labs, Umbra, and HawkEye 360; GPS; miniature CubeSats for education and research; and military/defense satellites.

Loading next visibility...
Identifier
65404, 2025-192A
Orbit
LEO
Country
Flag of USUS
Related business
Manufacturer
SpaceX/Seattle
Mission
Operational Commercial Communications
Bus & Motor
STARLINK V2MO, Unknown motor
Mass
575 kg wet, ~530 kg dry
Launch date (UTC)
2025-08-31 (10 months ago)
Launch vehicle
FALCON 9
Launch site
Air Force Eastern Test Range (AFETR)
Object type
Payload
Rocket body
Debris
Shape & HBR
Box + 2 Pan, 17.7 m
Radar Cross Section
36.964 m², Large (>1 m²)

Expand to show TLE details & history
Last TLE update: 17 hours ago

TLE from 17 hours ago
0 STARLINK-35031
1 65404U 25192A   26171.14367610  .00031982  00000-0  95346-3 0  9996
2 65404  53.1594 125.4824 0001299  83.5218 276.5933 15.34406158 44945
Epoch: 2026-06-20T03:26Z
TLE epoch observation values (Epoch: 2026-06-20T03:26:53.615Z)
Latitude
0.00004°
Longitude
165.39651°
Altitude
463.484 km
Speed
7.636 km/s
True Right ascension
08h 21m 55s
True Declination
0° 00' 00"
Sunlit
Object was in daylight at epoch
Visualization orbit readout
Latitude
Unknown
Longitude
Unknown
Altitude
Unknown
Speed
Unknown
Apparent Right ascension
Unknown
Apparent Declination
Unknown
Sunlit
N/A
Visualization observer readout
Local Sidereal Time
07:12:42
Azimuth
Unknown
Elevation
Unknown
Doppler factor
Unknown
Orbital elements
Apogee altitude
463.831 km
Perigee altitude
462.053 km
Semi-major axis
6,841.079 km
Eccentricity
0.00013
Inclination
53.1594°
RAAN
125.4824°
Arg. of periapsis
83.5218°
True anomaly
276.57851°
Mean anomaly
276.5933°
Eccentric anomaly
276.58591°
Mean motion
3.8358 °/min
Orbital period
93.85 mins
BSTAR
0.00095346
Loading maneuver chart data...
Computing Atmospheric mass density...
Loading historical data...
Loading historical data...
Loading historical data...
Loading historical data...
Loading historical data...
Loading historical data...
Loading historical data...

Documentation

Showing up to 5 results
|